This is the latest recevied weather packets stored in our database for station/object EA6MW-10. If no packets are shown the sender has not sent any weather packets the latest 10 day(s).
| Time | Temp. | Humidity | Pressure | Rain* | Wind** | Luminosity | Snow |
|---|---|---|---|---|---|---|---|
| 1777675954 | 17.78° C | 60% | 1024.1 hPa | - | - | - | - |
| 1777675054 | 18.33° C | 63% | 1024.1 hPa | - | - | - | - |
| 1777674155 | 17.78° C | 64% | 1024.1 hPa | - | - | - | - |
| 1777673254 | 17.78° C | 66% | 1024.1 hPa | - | - | - | - |
| 1777672354 | 17.78° C | 67% | 1023.9 hPa | - | - | - | - |
| 1777671453 | 17.78° C | 68% | 1023.8 hPa | - | - | - | - |
| 1777670553 | 17.22° C | 69% | 1023.7 hPa | - | - | - | - |
| 1777669653 | 17.22° C | 69% | 1023.7 hPa | - | - | - | - |
| 1777668753 | 17.22° C | 69% | 1023.5 hPa | - | - | - | - |
| 1777667852 | 17.78° C | 68% | 1023.5 hPa | - | - | - | - |
| 1777666952 | 17.78° C | 69% | 1023.4 hPa | - | - | - | - |
| 1777666052 | 17.78° C | 69% | 1023.2 hPa | - | - | - | - |
| 1777665151 | 18.33° C | 68% | 1023.2 hPa | - | - | - | - |
| 1777664251 | 18.89° C | 68% | 1023 hPa | - | - | - | - |
| 1777663351 | 18.89° C | 69% | 1023 hPa | - | - | - | - |
| 1777662451 | 18.89° C | 68% | 1022.8 hPa | - | - | - | - |
| 1777661551 | 19.44° C | 68% | 1022.6 hPa | - | - | - | - |
| 1777660650 | 19.44° C | 69% | 1022.4 hPa | - | - | - | - |
| 1777659750 | 19.44° C | 69% | 1022.3 hPa | - | - | - | - |
| 1777658850 | 19.44° C | 69% | 1022 hPa | - | - | - | - |
| 1777657949 | 19.44° C | 69% | 1021.8 hPa | - | - | - | - |
| 1777657049 | 19.44° C | 70% | 1021.9 hPa | - | - | - | - |
| 1777656148 | 19.44° C | 70% | 1021.9 hPa | - | - | - | - |
| 1777655248 | 18.89° C | 75% | 1021.8 hPa | - | - | - | - |
| 1777654348 | 18.89° C | 77% | 1021.6 hPa | - | - | - | - |
* Rain since midnight (hover to see other rain measurements)
** Current wind speed in m/s (hover to see current wind gust speed)